Regional Weather Roundup
Issued by NWS

Home | Current Version | Previous Version | Text Only | Print | Product List | Glossary Off
Versions: 1 2 3 4 5 6 7 8 9 10 11 12 13 14 15 16 17 18 19 20 21 22 23 24 25 26 27 28 29 30 31 32 33 34 35 36 37 38 39 40 41 42 43 44 45 46 47 48 49 50

000
ASUS45 KBOU 300710
RWRCO

WEATHER ROUNDUP FOR COLORADO
NATIONAL WEATHER SERVICE DENVER/BOULDER CO
100 AM MDT TUE JUN 30 2015

NOTE: "FAIR" INDICATES FEW OR NO CLOUDS BELOW 12000 FEET WITH NO
SIGNIFICANT WEATHER AND/OR OBSTRUCTIONS TO VISIBILITY.

COZ001>005-013-030-031-300800-
...NORTHWEST COLORADO...

CITY           SKY/WX    TMP DP  RH WIND       PRES   REMARKS
CRAIG          MOCLDY    58  47  66 CALM      30.24S
HAYDEN         MOCLDY    64  45  48 E9        30.27S
MEEKER         PTCLDY    63  44  50 E5        30.26R
MOUNT WERNER   NOT AVBL
STEAMBOAT SPGS MOCLDY    61  47  58 CALM      30.31S
WALDEN         CLEAR     50  43  76 SE3       30.42S
$$

COZ006>008-011-300800-
...WEST CENTRAL VALLEYS...

CITY           SKY/WX    TMP DP  RH WIND       PRES   REMARKS
GRAND JUNCTION PTCLDY    79  43  27 SE9       30.08R
MONTROSE       CLEAR     72  45  37 S7        30.19R
EAGLE          PTCLDY    64  45  48 CALM      30.31R
RIFLE          PTCLDY    69  45  41 CALM      30.17R
DELTA          CLEAR     74  42  32 N7        30.14R
NUCLA          CLEAR     72  43  35 E9        30.22S
$$

COZ017>023-064>068-300800-
...SOUTHWEST COLORADO...

CITY           SKY/WX    TMP DP  RH WIND       PRES   REMARKS
DURANGO        CLEAR     58  53  84 CALM      30.29R
CORTEZ         CLEAR     62  49  62 SE5       30.21R
PAGOSA SPRINGS CLEAR     56  46  70 CALM      30.38S
TELLURIDE      CLEAR     61  40  46 CALM      30.50R
WOLF CREEK PAS NOT AVBL
$$

COZ009-010-012-014-032>034-037-058>063-300800-
...CENTRAL COLORADO...

CITY           SKY/WX    TMP DP  RH WIND       PRES   REMARKS
ASPEN          CLEAR     62  43  49 SW6       30.37S
BUENA VISTA    CLEAR     55  48  79 CALM      30.45S
COPPER MTN     CLEAR     54  39  58 S14G20    30.73F
BERTHOUD PASS  FAIR      45  34  65 SW5       30.76F
COTTONWOOD PAS NOT AVBL
GUNNISON       CLEAR     57  45  62 N6        30.42S
KREMMLING      CLEAR     59  43  55 CALM      30.39S
LEADVILLE      CLEAR     48  41  76 NE6       30.56F
MONARCH PASS   CLEAR     46  41  81 E12       30.82F
SALIDA         CLEAR     58  51  78 W7        30.49S
SUNLIGHT       CLEAR     59  39  47 E3        30.64F
WILKERSON PASS CLEAR     50  41  71 SW3       30.71F
$$

COZ069>075-300800-
...SAN LUIS VALLEY/SANGRE DE CRISTO MOUNTAINS...

CITY           SKY/WX    TMP DP  RH WIND       PRES   REMARKS
ALAMOSA        CLEAR     61  45  55 E5        30.39R
LA VETA PASS   CLEAR     52  43  71 MISG      30.60F
SAGUACHE       CLEAR     55  46  71 N8        30.43R
$$

COZ035-036-038>040-300800-
...NORTHERN COLORADO FRONT RANGE...

CITY           SKY/WX    TMP DP  RH WIND       PRES   REMARKS
DENVER INTL AP PTCLDY    68  53  58 SW9       30.21F
DMNS CITY PARK   N/A     67  53  59 SE6       30.20F
AURORA         PTCLDY    64  54  68 S9        30.24F
FRONT RANGE AP CLEAR     64  59  82 S8        30.22F
ERIE MUNI ARPT CLEAR     62  52  71 CALM      30.19F
BOULDER MUN AP CLEAR     70  48  46 CALM      30.20F
CENTENNIAL     PTCLDY    61  53  75 S7        30.25F
BROOMFIELD     CLEAR     68  48  49 W9        30.23F
FORT COLLINS   CLEAR     66  54  63 CALM      30.19F
LONGMONT       CLEAR     67  51  57 W5        30.21S
$$

COZ041-046-047-076>085-087-088-300800-
...PIKES PEAK/PALMER DIVIDE AND SOUTHERN FOOTHILLS...

CITY           SKY/WX    TMP DP  RH WIND       PRES   REMARKS
COLO. SPRINGS  PTCLDY    63  53  70 N5        30.31F
A. F. ACADEMY  CLEAR     56  49  79 N9        30.32F
ELLICOTT       CLEAR    N/A N/A N/A NW3       30.29F
FALCON         CLEAR     58  49  71 W6        30.36S
FORT CARSON    CLEAR     68  53  58 W6        30.27F
LIMON          CLEAR     57  56  96 N5        30.24S
MONUMENT HILL  CLEAR     59  48  67 MISG      30.36S
TRINIDAD       PTCLDY    66  51  58 SW8       30.28S
$$

COZ042>045-048>051-090-091-300800-
...NORTHEAST COLORADO...

CITY           SKY/WX    TMP DP  RH WIND       PRES   REMARKS
GREELEY ARPT   CLEAR     66  55  68 NE5       30.17F
AKRON          CLEAR     67  54  63 SW8       30.17F
BURLINGTON     CLEAR     63  54  72 SW7       30.15S
WRAY           CLEAR     65  57  74 W7        30.10S
STERLING       CLEAR     63  59  88 S6        30.12F
HOLYOKE        CLEAR     64  59  82 SW3       30.11S
FORT MORGAN    CLEAR     68  -2   6 SW3       30.17S
$$

COZ086-089-092>099-300800-
...SOUTHEAST COLORADO...

CITY           SKY/WX    TMP DP  RH WIND       PRES   REMARKS
PUEBLO         CLEAR     67  52  58 N8        30.19F
LA JUNTA       CLEAR     69  54  58 SW7       30.16S
LAMAR          CLEAR     61  56  83 SW6       30.11S
SPRINGFIELD      N/A     62  53  72 W6        30.18S
$$


USA.gov is the U.S. government's official web portal to all federal, state and local government web resources and services.